Weather Roundup
Issued by NWS

Home | Current Version | Previous Version | Graphics & Text | Print | Product List | Glossary Off
Versions: 1 2 3 4 5 6 7 8 9 10 11 12 13 14 15 16 17 18 19 20 21 22 23 24 25 26 27 28 29 30 31 32 33 34 35 36 37 38 39 40 41 42 43 44 45 46 47 48 49 50

000
NZUS93 KARX 012010
HRRWXR

CURRENT HOURLY OBSERVATIONS ACROSS
MUCH OF THE UPPER MISSISSIPPI VALLEY
NATIONAL WEATHER SERVICE LA CROSSE WI
200 PM CST SUN FEB 01 2015


...SOUTHEAST MINNESOTA...


CITY           SKY/WX    TMP DP  RH WIND       PRES   REMARKS
ROCHESTER      LGT SNOW  12   5  73 N22       30.08R WCI  -7
ROCHESTER/MAYO CLOUDY    13   4  68 N13G23    30.10S WCI  -2
WINONA         CLOUDY    18   9  68 NE13G18   30.13F WCI   4
AUSTIN         LGT SNOW  12   7  79 N22G28    30.07R WCI  -7
ALBERT LEA     LGT SNOW  12   9  85 N18G24    30.09R WCI  -5
DODGE CENTER   CLOUDY    12   7  79 N20G26    30.08F WCI  -6
PRESTON        CLOUDY    12   7  80 N14G24    30.05S WCI  -4
OWATONNA       CLOUDY    14   3  62 N23G32    30.12F WCI  -5
FARIBAULT      CLOUDY    16   1  53 N20G25    30.15F WCI  -1
$$

...ELSEWHERE IN MINNESOTA...


CITY           SKY/WX    TMP DP  RH WIND       PRES   REMARKS
MINNEAPOLIS    PTSUNNY   17   3  54 N18G25    30.21F WCI   1
INTNL FALLS    SUNNY      0 -15  49 N6        30.38F WCI -12
DULUTH         MOSUNNY    8 -14  35 N10       30.26F WCI  -6
RED WING       CLOUDY    16   0  48 NE13G21   30.17F WCI   2
REDWOOD FALLS  CLOUDY    16   4  59 N15G23    30.25S WCI   1
MANKATO        CLOUDY   N/A N/A N/A N22       30.15F
WORTHINGTON    CLOUDY    12   3  67 N23G32    30.17S VSB 1   WCI  -7
FAIRMONT       CLOUDY    14   9  79 N22       30.13R VSB 1   WCI  -4
$$

...SOUTHWEST WISCONSIN...


CITY           SKY/WX    TMP DP  RH WIND       PRES   REMARKS
LA CROSSE      LGT SNOW  17   8  67 N17       30.09F WCI   1
PRAIRIE DU CHI MIX PCPN  17  10  73 N15G24    29.99F WCI   3
BOSCOBEL       LGT SNOW  17  11  77 NE8G20    30.00S VSB 1   WCI   7
LONE ROCK      SNOW      15   9  76 NE20G30   29.99S VSB 1/2 WCI  -2
PLATTEVILLE    CLOUDY    16  13  88 N28G35    29.88S VSB 1/4 WCI  -3
FORT MC COY    LGT SNOW  15   8  73 NE15G24   30.09S WCI  -1
CAMP DOUGLAS   LGT SNOW  12   9  85 NE10G25   30.07F BLWGSNOWWCI  -1
VIROQUA        CLOUDY    14   9  79 NE22G29   29.99F WCI  -4
WIS DELLS      LGT SNOW  13   8  82 NE20G26   30.00F WCI  -5
$$

...ELSEWHERE IN WISCONSIN...


CITY           SKY/WX    TMP DP  RH WIND       PRES   REMARKS
MILWAUKEE      SNOW      22  17  81 NE24G36   29.92S VSB 1/2 WCI   5
MADISON        SNOW      13   9  84 N29G36    29.94F VSB 1/4 WCI  -8
GREEN BAY      MIX PCPN   9   2  73 NE28G37   30.13F WCI -13
EAU CLAIRE     CLOUDY    14   0  53 N15G24    30.16F WCI  -1
BLACK RVR FLS  CLOUDY    15   4  62 N12G17    30.11S HAZE    WCI   2
MEDFORD        CLOUDY    12   0  58 N17       30.09F WCI  -6
WAUSAU         CLOUDY    13   0  56 NE12G21   30.09F WCI  -1
WIS RAPIDS     LGT SNOW  12   1  61 NE14G25   30.10F WCI  -3
MARSHFIELD     CLOUDY    13   2  61 NE15      30.08F WCI  -3
RICE LAKE      CLOUDY    15   4  61 N18       30.20F WCI  -2
$$

...NORTHEAST IOWA...


CITY           SKY/WX    TMP DP  RH WIND       PRES   REMARKS
DECORAH        LGT SNOW  14   9  79 NE17G25   29.99S WCI  -3
MASON CITY     LGT SNOW  13   9  84 N28G35    30.06R VSB 3/4 WCI  -8
CHARLES CITY   LGT SNOW  14  12  92 N24G30    30.01S WCI  -5
OELWEIN        LGT SNOW  16  12  86 NE28G38   29.92R WCI  -4
$$

...ELSEWHERE IN IOWA...


CITY           SKY/WX    TMP DP  RH WIND       PRES   REMARKS
DES MOINES     SNOW      20  15  81 N20G31    29.94R VSB 1/2 WCI   4
IOWA CITY      SNOW      21  17  84 NE29G37   29.83S VSB 1/2 WCI   3
FORT DODGE     CLOUDY    16  10  79 CALM      30.05R VSB 1
$$

...NORTHERN ILLINOIS...


CITY           SKY/WX    TMP DP  RH WIND       PRES   REMARKS
CHICAGO-OHARE  HVY SNOW  24  22  91 NE21G31   29.78S VSB 1/4 WCI   9
CHICAGO-MIDWAY SNOW      28  26  92 NE21G26   29.75R VSB 1/2 WCI  15
MOLINE         HVY SNOW  24  21  88 NE16G32   29.76F VSB 1/4 WCI  11
ROCKFORD       HVY SNOW  23  19  85 NE26G35   29.83F VSB 1/4 WCI   6
PEORIA         CLOUDY    34  31  88 NE9       29.64F FOG     WCI  27
$$

NOTE: "FAIR" INDICATES FEW OR NO CLOUDS BELOW 12,000 FEET WITH NO
SIGNIFICANT WEATHER AND/OR OBSTRUCTIONS TO VISIBILITY. WIND
SPEEDS ARE IN MILES-PER-HOUR.



USA.gov is the U.S. government's official web portal to all federal, state and local government web resources and services.